Time,TemperatureF,DewpointF,PressureIn,WindDirection,WindDirectionDegrees,WindSpeedMPH,WindSpeedGustMPH,Humidity,HourlyPrecipIn,Conditions,Clouds,dailyrainin,SoftwareType,DateUTC
2013-01-19 00:02:00,27.9,14.2,30.35,ESE,102,0.0,0.0,56,0.00,,,0.00,meteohub,2013-01-19 05:02:00,
2013-01-19 00:03:00,27.9,14.2,30.35,ESE,102,0.0,0.0,56,0.00,,,0.00,meteohub,2013-01-19 05:03:00,
2013-01-19 00:05:00,27.9,14.2,30.35,ESE,102,0.0,0.0,56,0.00,,,0.00,meteohub,2013-01-19 05:05:00,
2013-01-19 00:11:00,27.9,14.5,30.35,ESE,102,0.0,0.0,57,0.00,,,0.00,meteohub,2013-01-19 05:11:00,
2013-01-19 00:17:00,27.7,14.4,30.35,ESE,102,0.0,0.0,57,0.00,,,0.00,meteohub,2013-01-19 05:17:00,
2013-01-19 00:22:00,27.5,14.2,30.35,ESE,102,0.0,0.0,57,0.00,,,0.00,meteohub,2013-01-19 05:22:00,
2013-01-19 00:27:00,27.3,14.2,30.35,ESE,102,0.0,0.0,57,0.00,,,0.00,meteohub,2013-01-19 05:27:00,
2013-01-19 00:32:00,27.1,14.0,30.35,East,100,0.0,0.0,57,0.00,,,0.00,meteohub,2013-01-19 05:32:00,
2013-01-19 00:38:00,27.1,14.4,30.35,NNW,345,0.0,0.0,58,0.00,,,0.00,meteohub,2013-01-19 05:38:00,
2013-01-19 00:44:00,27.0,13.8,30.35,NNW,345,0.0,0.0,57,0.00,,,0.00,meteohub,2013-01-19 05:44:00,
2013-01-19 00:51:00,27.0,13.3,30.35,NNW,345,0.0,0.0,56,0.00,,,0.00,meteohub,2013-01-19 05:51:00,
2013-01-19 00:57:00,27.0,13.3,30.34,NNW,345,0.0,0.0,56,0.00,,,0.00,meteohub,2013-01-19 05:57:00,
2013-01-19 01:02:00,26.8,13.6,30.35,NNW,345,0.0,0.0,57,0.00,,,0.00,meteohub,2013-01-19 06:02:00,
2013-01-19 01:07:00,26.4,13.3,30.35,NNW,345,0.0,0.0,57,0.00,,,0.00,meteohub,2013-01-19 06:07:00,
2013-01-19 01:12:00,26.2,13.8,30.35,NNE,16,0.0,0.0,59,0.00,,,0.00,meteohub,2013-01-19 06:12:00,
2013-01-19 01:18:00,26.2,13.5,30.35,ENE,66,0.0,0.0,58,0.00,,,0.00,meteohub,2013-01-19 06:18:00,
2013-01-19 01:24:00,26.2,13.8,30.35,ESE,113,0.0,0.0,59,0.00,,,0.00,meteohub,2013-01-19 06:24:00,
2013-01-19 01:30:00,26.4,13.6,30.34,ESE,121,0.0,2.0,58,0.00,,,0.00,meteohub,2013-01-19 06:30:00,
2013-01-19 01:36:00,27.0,14.5,30.34,SE,130,0.0,2.0,59,0.00,,,0.00,meteohub,2013-01-19 06:36:00,
2013-01-19 01:42:00,27.3,14.9,30.34,SE,130,0.0,2.0,59,0.00,,,0.00,meteohub,2013-01-19 06:42:00,
2013-01-19 01:49:00,27.7,15.3,30.34,SE,130,0.0,1.0,59,0.00,,,0.00,meteohub,2013-01-19 06:49:00,
2013-01-19 01:55:00,27.5,15.1,30.34,SE,130,0.0,1.0,59,0.00,,,0.00,meteohub,2013-01-19 06:55:00,
2013-01-19 02:01:00,27.3,15.3,30.34,SE,130,0.0,0.0,60,0.00,,,0.00,meteohub,2013-01-19 07:01:00,
2013-01-19 02:07:00,27.1,15.1,30.34,SE,130,0.0,0.0,60,0.00,,,0.00,meteohub,2013-01-19 07:07:00,
2013-01-19 02:12:00,27.0,14.9,30.34,SE,130,0.0,0.0,60,0.00,,,0.00,meteohub,2013-01-19 07:12:00,
2013-01-19 02:17:00,27.0,14.9,30.34,SE,130,0.0,0.0,60,0.00,,,0.00,meteohub,2013-01-19 07:17:00,
2013-01-19 02:22:00,27.0,14.9,30.34,SE,130,0.0,0.0,60,0.00,,,0.00,meteohub,2013-01-19 07:22:00,
2013-01-19 02:27:00,27.1,14.7,30.34,SE,130,0.0,0.0,59,0.00,,,0.00,meteohub,2013-01-19 07:27:00,
2013-01-19 02:32:00,27.1,15.1,30.34,SE,130,0.0,0.0,60,0.00,,,0.00,meteohub,2013-01-19 07:32:00,
2013-01-19 02:37:00,27.1,15.1,30.34,SE,130,0.0,0.0,60,0.00,,,0.00,meteohub,2013-01-19 07:37:00,
2013-01-19 02:42:00,27.0,14.9,30.34,SE,130,0.0,0.0,60,0.00,,,0.00,meteohub,2013-01-19 07:42:00,
2013-01-19 02:49:00,26.4,14.4,30.34,SE,130,0.0,0.0,60,0.00,,,0.00,meteohub,2013-01-19 07:49:00,
2013-01-19 02:55:00,26.1,14.5,30.34,SE,130,0.0,0.0,61,0.00,,,0.00,meteohub,2013-01-19 07:55:00,
2013-01-19 03:01:00,25.9,14.7,30.34,SE,130,0.0,0.0,62,0.00,,,0.00,meteohub,2013-01-19 08:01:00,
2013-01-19 03:07:00,25.7,14.2,30.33,SE,130,0.0,0.0,61,0.00,,,0.00,meteohub,2013-01-19 08:07:00,
2013-01-19 03:12:00,25.9,14.4,30.33,SE,136,0.0,0.0,61,0.00,,,0.00,meteohub,2013-01-19 08:12:00,
2013-01-19 03:17:00,25.9,13.8,30.33,SE,124,0.0,0.0,60,0.00,,,0.00,meteohub,2013-01-19 08:17:00,
2013-01-19 03:22:00,26.1,14.5,30.33,SE,124,0.0,1.0,61,0.00,,,0.00,meteohub,2013-01-19 08:22:00,
2013-01-19 03:27:00,26.1,14.5,30.33,SE,124,0.0,1.0,61,0.00,,,0.00,meteohub,2013-01-19 08:27:00,
2013-01-19 03:32:00,26.1,14.5,30.33,SE,124,0.0,0.0,61,0.00,,,0.00,meteohub,2013-01-19 08:32:00,
2013-01-19 03:37:00,26.2,14.5,30.32,East,97,0.0,0.0,61,0.00,,,0.00,meteohub,2013-01-19 08:37:00,
2013-01-19 03:42:00,26.2,15.4,30.32,ESE,115,0.0,2.0,63,0.00,,,0.00,meteohub,2013-01-19 08:42:00,
2013-01-19 03:47:00,26.4,15.1,30.32,ESE,112,1.0,2.0,62,0.00,,,0.00,meteohub,2013-01-19 08:47:00,
2013-01-19 03:52:00,26.4,15.6,30.32,ESE,111,1.0,2.0,63,0.00,,,0.00,meteohub,2013-01-19 08:52:00,
2013-01-19 03:57:00,26.6,15.3,30.32,ESE,111,1.0,2.0,62,0.00,,,0.00,meteohub,2013-01-19 08:57:00,
2013-01-19 04:02:00,26.8,14.7,30.32,ESE,111,0.0,2.0,60,0.00,,,0.00,meteohub,2013-01-19 09:02:00,
2013-01-19 04:07:00,26.8,15.1,30.31,ESE,122,0.0,2.0,61,0.00,,,0.00,meteohub,2013-01-19 09:07:00,
2013-01-19 04:12:00,26.8,15.4,30.31,SE,126,0.0,2.0,62,0.00,,,0.00,meteohub,2013-01-19 09:12:00,
2013-01-19 04:17:00,26.8,15.4,30.31,SE,126,0.0,2.0,62,0.00,,,0.00,meteohub,2013-01-19 09:17:00,
2013-01-19 04:22:00,26.8,14.7,30.30,ESE,121,0.0,2.0,60,0.00,,,0.00,meteohub,2013-01-19 09:22:00,
2013-01-19 04:27:00,27.0,15.3,30.30,SSE,148,0.0,1.0,61,0.00,,,0.00,meteohub,2013-01-19 09:27:00,
2013-01-19 04:32:00,27.0,15.3,30.30,NNE,31,0.0,0.0,61,0.00,,,0.00,meteohub,2013-01-19 09:32:00,
2013-01-19 04:37:00,26.8,14.4,30.30,SE,134,0.0,0.0,59,0.00,,,0.00,meteohub,2013-01-19 09:37:00,
2013-01-19 04:42:00,26.8,14.0,30.30,SE,128,0.0,3.0,58,0.00,,,0.00,meteohub,2013-01-19 09:42:00,
2013-01-19 04:47:00,27.0,14.2,30.30,SE,125,0.0,3.0,58,0.00,,,0.00,meteohub,2013-01-19 09:47:00,
2013-01-19 04:52:00,27.0,14.9,30.30,SE,127,0.0,2.0,60,0.00,,,0.00,meteohub,2013-01-19 09:52:00,
2013-01-19 04:59:00,27.0,14.2,30.29,ESE,115,1.0,2.0,58,0.00,,,0.00,meteohub,2013-01-19 09:59:00,
2013-01-19 05:05:00,27.1,14.7,30.29,SSE,154,1.0,2.0,59,0.00,,,0.00,meteohub,2013-01-19 10:05:00,
2013-01-19 05:11:00,27.3,15.3,30.29,SSE,151,0.0,2.0,60,0.00,,,0.00,meteohub,2013-01-19 10:11:00,
2013-01-19 05:17:00,27.3,15.6,30.29,SE,144,0.0,2.0,61,0.00,,,0.00,meteohub,2013-01-19 10:17:00,
2013-01-19 05:22:00,27.0,15.6,30.29,SE,142,0.0,1.0,62,0.00,,,0.00,meteohub,2013-01-19 10:22:00,
2013-01-19 05:27:00,26.8,15.1,30.29,SE,142,0.0,0.0,61,0.00,,,0.00,meteohub,2013-01-19 10:27:00,
2013-01-19 05:33:00,26.2,15.1,30.29,SE,142,0.0,0.0,62,0.00,,,0.00,meteohub,2013-01-19 10:33:00,
2013-01-19 05:39:00,25.9,15.1,30.30,SE,142,0.0,0.0,63,0.00,,,0.00,meteohub,2013-01-19 10:39:00,
2013-01-19 05:45:00,25.9,15.1,30.30,SE,130,0.0,0.0,63,0.00,,,0.00,meteohub,2013-01-19 10:45:00,
2013-01-19 05:51:00,25.9,15.1,30.30,ESE,119,0.0,2.0,63,0.00,,,0.00,meteohub,2013-01-19 10:51:00,
2013-01-19 05:57:00,26.2,15.1,30.30,ESE,120,0.0,2.0,62,0.00,,,0.00,meteohub,2013-01-19 10:57:00,
2013-01-19 06:02:00,26.8,15.4,30.30,ESE,121,0.0,2.0,62,0.00,,,0.00,meteohub,2013-01-19 11:02:00,
2013-01-19 06:07:00,27.0,15.6,30.30,SE,125,0.0,2.0,62,0.00,,,0.00,meteohub,2013-01-19 11:07:00,
2013-01-19 06:12:00,27.1,15.4,30.30,SE,144,0.0,2.0,61,0.00,,,0.00,meteohub,2013-01-19 11:12:00,
2013-01-19 07:37:00,36.1,16.3,30.28,SE,141,0.0,3.0,44,0.00,,,0.00,meteohub,2013-01-19 12:37:00,
2013-01-19 07:48:00,36.7,16.9,30.28,ESE,114,1.0,3.0,44,0.00,,,0.00,meteohub,2013-01-19 12:48:00,
2013-01-19 07:52:00,37.4,16.3,30.28,South,187,0.0,3.0,42,0.00,,,0.00,meteohub,2013-01-19 12:52:00,
2013-01-19 07:57:00,37.6,16.0,30.28,South,187,0.0,3.0,41,0.00,,,0.00,meteohub,2013-01-19 12:57:00,
2013-01-19 08:00:00,37.6,16.0,30.28,WSW,244,0.0,2.0,41,0.00,,,0.00,meteohub,2013-01-19 13:00:00,
2013-01-19 08:07:00,37.6,16.0,30.28,WSW,244,0.0,1.0,41,0.00,,,0.00,meteohub,2013-01-19 13:07:00,
2013-01-19 08:12:00,37.8,16.2,30.28,WSW,240,0.0,1.0,41,0.00,,,0.00,meteohub,2013-01-19 13:12:00,
2013-01-19 08:17:00,37.9,15.8,30.28,WSW,240,0.0,1.0,40,0.00,,,0.00,meteohub,2013-01-19 13:17:00,
2013-01-19 08:22:00,38.1,16.0,30.28,SW,227,1.0,1.0,40,0.00,,,0.00,meteohub,2013-01-19 13:22:00,
2013-01-19 08:27:00,38.7,15.8,30.28,SSW,209,0.0,2.0,39,0.00,,,0.00,meteohub,2013-01-19 13:27:00,
2013-01-19 08:32:00,39.2,18.0,30.29,SSW,209,0.0,2.0,42,0.00,,,0.00,meteohub,2013-01-19 13:32:00,
2013-01-19 08:40:00,40.3,19.6,30.29,South,170,0.0,1.0,43,0.00,,,0.00,meteohub,2013-01-19 13:40:00,
2013-01-19 08:46:00,40.8,22.1,30.29,SE,139,0.0,1.0,47,0.00,,,0.00,meteohub,2013-01-19 13:46:00,
2013-01-19 08:52:00,41.2,22.5,30.29,SE,139,0.0,0.0,47,0.00,,,0.00,meteohub,2013-01-19 13:52:00,
2013-01-19 08:57:00,41.7,23.0,30.29,SSE,162,0.0,0.0,47,0.00,,,0.00,meteohub,2013-01-19 13:57:00,
2013-01-19 09:02:00,42.1,18.9,30.29,SE,141,1.0,2.0,39,0.00,,,0.00,meteohub,2013-01-19 14:02:00,
2013-01-19 09:07:00,42.4,18.7,30.29,SE,131,0.0,2.0,38,0.00,,,0.00,meteohub,2013-01-19 14:07:00,
2013-01-19 09:12:00,43.0,20.3,30.29,SE,132,1.0,3.0,40,0.00,,,0.00,meteohub,2013-01-19 14:12:00,
2013-01-19 09:17:00,43.7,18.5,30.29,SSE,149,2.0,5.0,36,0.00,,,0.00,meteohub,2013-01-19 14:17:00,
2013-01-19 09:22:00,44.4,17.8,30.29,SE,128,0.0,5.0,34,0.00,,,0.00,meteohub,2013-01-19 14:22:00,
2013-01-19 09:29:00,44.8,17.4,30.29,SSE,153,1.0,5.0,33,0.00,,,0.00,meteohub,2013-01-19 14:29:00,
2013-01-19 09:35:00,45.0,18.3,30.29,SE,144,1.0,5.0,34,0.00,,,0.00,meteohub,2013-01-19 14:35:00,
2013-01-19 09:41:00,45.1,17.8,30.29,SSW,208,0.0,4.0,33,0.00,,,0.00,meteohub,2013-01-19 14:41:00,
2013-01-19 09:47:00,45.0,16.9,30.29,SSE,155,1.0,4.0,32,0.00,,,0.00,meteohub,2013-01-19 14:47:00,
2013-01-19 09:52:00,45.1,18.5,30.29,SSW,208,0.0,4.0,34,0.00,,,0.00,meteohub,2013-01-19 14:52:00,
2013-01-19 09:57:00,45.1,17.8,30.29,North,355,0.0,4.0,33,0.00,,,0.00,meteohub,2013-01-19 14:57:00,
2013-01-19 10:02:00,45.1,17.8,30.29,SE,124,0.0,4.0,33,0.00,,,0.00,meteohub,2013-01-19 15:02:00,
2013-01-19 10:07:00,45.7,17.4,30.29,SSE,163,2.0,3.0,32,0.00,,,0.00,meteohub,2013-01-19 15:07:00,
2013-01-19 10:14:00,46.8,17.8,30.29,SW,227,2.0,3.0,31,0.00,,,0.00,meteohub,2013-01-19 15:14:00,
2013-01-19 10:20:00,47.5,18.3,30.29,SSW,212,0.0,3.0,31,0.00,,,0.00,meteohub,2013-01-19 15:20:00,
2013-01-19 10:26:00,48.0,18.1,30.29,SW,225,0.0,4.0,30,0.00,,,0.00,meteohub,2013-01-19 15:26:00,
2013-01-19 10:32:00,48.7,17.1,30.29,West,267,2.0,6.0,28,0.00,,,0.00,meteohub,2013-01-19 15:32:00,
2013-01-19 10:37:00,49.5,17.8,30.28,WSW,247,0.0,6.0,28,0.00,,,0.00,meteohub,2013-01-19 15:37:00,
2013-01-19 10:45:00,50.2,18.3,30.28,WNW,287,0.0,5.0,28,0.00,,,0.00,meteohub,2013-01-19 15:45:00,
2013-01-19 10:51:00,50.7,18.9,30.28,NNW,333,1.0,8.0,28,0.00,,,0.00,meteohub,2013-01-19 15:51:00,
2013-01-19 10:57:00,50.7,17.1,30.27,North,0,7.0,8.0,26,0.00,,,0.00,meteohub,2013-01-19 15:57:00,
2013-01-19 11:02:00,50.7,18.9,30.27,ESE,122,0.0,9.0,28,0.00,,,0.00,meteohub,2013-01-19 16:02:00,
2013-01-19 11:07:00,51.4,18.5,30.27,WNW,302,1.0,9.0,27,0.00,,,0.00,meteohub,2013-01-19 16:07:00,
2013-01-19 11:12:00,51.6,17.8,30.26,NNE,26,0.0,9.0,26,0.00,,,0.00,meteohub,2013-01-19 16:12:00,
2013-01-19 11:17:00,51.8,17.1,30.25,NE,42,2.0,7.0,25,0.00,,,0.00,meteohub,2013-01-19 16:17:00,
2013-01-19 11:22:00,52.0,17.2,30.25,ENE,65,1.0,11.0,25,0.00,,,0.00,meteohub,2013-01-19 16:22:00,
2013-01-19 11:30:00,52.5,19.4,30.24,NNW,339,5.0,10.0,27,0.00,,,0.00,meteohub,2013-01-19 16:30:00,
2013-01-19 11:36:00,52.2,17.4,30.24,NNE,28,5.0,9.0,25,0.00,,,0.00,meteohub,2013-01-19 16:36:00,
2013-01-19 11:42:00,52.2,20.1,30.23,NW,304,2.0,9.0,28,0.00,,,0.00,meteohub,2013-01-19 16:42:00,
2013-01-19 11:47:00,52.0,17.2,30.22,East,80,3.0,9.0,25,0.00,,,0.00,meteohub,2013-01-19 16:47:00,
2013-01-19 11:54:00,52.3,17.6,30.22,WNW,300,5.0,9.0,25,0.00,,,0.00,meteohub,2013-01-19 16:54:00,
2013-01-19 12:00:00,52.7,17.8,30.21,NW,306,6.0,12.0,25,0.00,,,0.00,meteohub,2013-01-19 17:00:00,
2013-01-19 12:06:00,52.5,17.8,30.21,WNW,288,4.0,12.0,25,0.00,,,0.00,meteohub,2013-01-19 17:06:00,
2013-01-19 12:12:00,52.9,18.0,30.20,NW,319,2.0,12.0,25,0.00,,,0.00,meteohub,2013-01-19 17:12:00,
2013-01-19 12:22:00,54.1,18.1,30.19,SW,232,1.0,9.0,24,0.00,,,0.00,meteohub,2013-01-19 17:22:00,
2013-01-19 12:27:00,54.7,19.6,30.19,West,259,2.0,9.0,25,0.00,,,0.00,meteohub,2013-01-19 17:27:00,
2013-01-19 12:32:00,54.9,17.8,30.18,North,0,5.0,9.0,23,0.00,,,0.00,meteohub,2013-01-19 17:32:00,
2013-01-19 12:37:00,54.9,16.7,30.18,WNW,295,5.0,9.0,22,0.00,,,0.00,meteohub,2013-01-19 17:37:00,
2013-01-19 12:45:00,54.9,18.7,30.17,SE,133,7.0,13.0,24,0.00,,,0.00,meteohub,2013-01-19 17:45:00,
2013-01-19 12:50:00,55.0,16.9,30.17,WNW,285,1.0,13.0,22,0.00,,,0.00,meteohub,2013-01-19 17:50:00,
2013-01-19 12:57:00,55.8,17.4,30.16,WNW,301,5.0,12.0,22,0.00,,,0.00,meteohub,2013-01-19 17:57:00,
2013-01-19 13:02:00,55.2,18.1,30.16,NW,315,4.0,14.0,23,0.00,,,0.00,meteohub,2013-01-19 18:02:00,
2013-01-19 13:09:00,55.2,14.9,30.15,WNW,290,8.0,14.0,20,0.00,,,0.00,meteohub,2013-01-19 18:09:00,
2013-01-19 13:16:00,55.6,15.1,30.15,NNW,342,4.0,14.0,20,0.00,,,0.00,meteohub,2013-01-19 18:16:00,
2013-01-19 13:22:00,55.2,17.1,30.14,NW,304,2.0,14.0,22,0.00,,,0.00,meteohub,2013-01-19 18:22:00,
2013-01-19 13:27:00,55.2,14.9,30.14,WNW,302,7.0,17.0,20,0.00,,,0.00,meteohub,2013-01-19 18:27:00,
2013-01-19 13:32:00,55.6,16.2,30.13,WNW,301,4.0,17.0,21,0.00,,,0.00,meteohub,2013-01-19 18:32:00,
2013-01-19 13:40:00,56.7,16.0,30.13,NNW,348,3.0,13.0,20,0.00,,,0.00,meteohub,2013-01-19 18:40:00,
2013-01-19 13:46:00,57.0,16.3,30.13,ENE,71,2.0,14.0,20,0.00,,,0.00,meteohub,2013-01-19 18:46:00,
2013-01-19 13:52:00,57.0,16.3,30.12,NW,312,6.0,14.0,20,0.00,,,0.00,meteohub,2013-01-19 18:52:00,
2013-01-19 14:00:00,57.7,16.9,30.11,NNW,336,3.0,11.0,20,0.00,,,0.00,meteohub,2013-01-19 19:00:00,
2013-01-19 14:07:00,57.9,15.8,30.12,WNW,303,3.0,11.0,19,0.00,,,0.00,meteohub,2013-01-19 19:07:00,
2013-01-19 14:15:00,57.7,14.5,30.11,SE,130,1.0,11.0,18,0.00,,,0.00,meteohub,2013-01-19 19:15:00,
2013-01-19 14:22:00,57.9,17.1,30.11,SSE,164,2.0,11.0,20,0.00,,,0.00,meteohub,2013-01-19 19:22:00,
2013-01-19 14:27:00,58.8,15.4,30.10,SSW,209,3.0,11.0,18,0.00,,,0.00,meteohub,2013-01-19 19:27:00,
2013-01-19 14:32:00,59.0,15.6,30.10,WNW,288,0.0,8.0,18,0.00,,,0.00,meteohub,2013-01-19 19:32:00,
2013-01-19 14:38:00,59.2,15.6,30.10,NW,310,4.0,8.0,18,0.00,,,0.00,meteohub,2013-01-19 19:38:00,
2013-01-19 14:44:00,59.4,15.8,30.09,WNW,300,2.0,8.0,18,0.00,,,0.00,meteohub,2013-01-19 19:44:00,
2013-01-19 14:50:00,58.8,16.7,30.09,WNW,299,3.0,7.0,19,0.00,,,0.00,meteohub,2013-01-19 19:50:00,
2013-01-19 14:56:00,59.4,17.1,30.09,NNW,332,4.0,8.0,19,0.00,,,0.00,meteohub,2013-01-19 19:56:00,
2013-01-19 15:02:00,59.4,17.1,30.09,ESE,102,2.0,8.0,19,0.00,,,0.00,meteohub,2013-01-19 20:02:00,
2013-01-19 15:09:00,59.7,14.9,30.08,SSW,201,2.0,8.0,17,0.00,,,0.00,meteohub,2013-01-19 20:09:00,
2013-01-19 15:15:00,59.4,15.8,30.08,West,264,2.0,6.0,18,0.00,,,0.00,meteohub,2013-01-19 20:15:00,
2013-01-19 15:22:00,58.8,16.7,30.07,West,262,2.0,8.0,19,0.00,,,0.00,meteohub,2013-01-19 20:22:00,
2013-01-19 15:28:00,58.6,16.5,30.07,WSW,252,1.0,8.0,19,0.00,,,0.00,meteohub,2013-01-19 20:28:00,
2013-01-19 15:34:00,58.5,15.1,30.07,NW,310,3.0,8.0,18,0.00,,,0.00,meteohub,2013-01-19 20:34:00,
2013-01-19 15:40:00,57.9,14.7,30.06,WNW,299,4.0,5.0,18,0.00,,,0.00,meteohub,2013-01-19 20:40:00,
2013-01-19 15:43:00,57.6,15.6,30.06,North,355,3.0,5.0,19,0.00,,,0.00,meteohub,2013-01-19 20:43:00,
2013-01-19 15:50:00,57.2,15.3,30.06,SE,144,4.0,6.0,19,0.00,,,0.00,meteohub,2013-01-19 20:50:00,
2013-01-19 15:57:00,57.4,15.4,30.06,NW,322,2.0,8.0,19,0.00,,,0.00,meteohub,2013-01-19 20:57:00,
2013-01-19 16:02:00,57.4,14.2,30.06,North,5,4.0,9.0,18,0.00,,,0.00,meteohub,2013-01-19 21:02:00,
2013-01-19 16:11:00,57.0,14.0,30.06,South,190,3.0,9.0,18,0.00,,,0.00,meteohub,2013-01-19 21:11:00,
2013-01-19 16:17:00,57.0,16.3,30.06,WSW,245,0.0,11.0,20,0.00,,,0.00,meteohub,2013-01-19 21:17:00,
2013-01-19 16:22:00,57.0,15.1,30.05,WSW,242,2.0,11.0,19,0.00,,,0.00,meteohub,2013-01-19 21:22:00,
2013-01-19 16:27:00,56.8,16.2,30.05,SSE,148,3.0,11.0,20,0.00,,,0.00,meteohub,2013-01-19 21:27:00,
2013-01-19 16:30:00,56.8,16.2,30.05,NNW,331,1.0,7.0,20,0.00,,,0.00,meteohub,2013-01-19 21:30:00,
2013-01-19 16:40:00,56.7,16.0,30.04,East,96,5.0,8.0,20,0.00,,,0.00,meteohub,2013-01-19 21:40:00,
2013-01-19 16:45:00,56.5,14.7,30.04,East,95,5.0,8.0,19,0.00,,,0.00,meteohub,2013-01-19 21:45:00,
2013-01-19 16:52:00,56.3,14.5,30.04,East,86,1.0,7.0,19,0.00,,,0.00,meteohub,2013-01-19 21:52:00,
2013-01-19 16:57:00,56.1,15.6,30.04,SE,125,1.0,7.0,20,0.00,,,0.00,meteohub,2013-01-19 21:57:00,
2013-01-19 17:05:00,55.9,15.4,30.04,SE,135,2.0,5.0,20,0.00,,,0.00,meteohub,2013-01-19 22:05:00,
2013-01-19 17:11:00,55.2,14.9,30.04,East,101,3.0,7.0,20,0.00,,,0.00,meteohub,2013-01-19 22:11:00,
2013-01-19 17:17:00,55.0,14.7,30.04,SSE,148,2.0,7.0,20,0.00,,,0.00,meteohub,2013-01-19 22:17:00,
2013-01-19 17:22:00,54.7,15.4,30.03,ESE,118,2.0,5.0,21,0.00,,,0.00,meteohub,2013-01-19 22:22:00,
2013-01-19 17:27:00,54.1,15.1,30.03,SE,127,1.0,5.0,21,0.00,,,0.00,meteohub,2013-01-19 22:27:00,
2013-01-19 17:34:00,54.0,16.0,30.03,SE,124,3.0,5.0,22,0.00,,,0.00,meteohub,2013-01-19 22:34:00,
2013-01-19 17:40:00,53.4,16.5,30.03,ESE,116,1.0,5.0,23,0.00,,,0.00,meteohub,2013-01-19 22:40:00,
2013-01-19 17:47:00,52.5,16.7,30.02,ESE,112,1.0,5.0,24,0.00,,,0.00,meteohub,2013-01-19 22:47:00,
2013-01-19 17:52:00,52.2,17.4,30.02,ESE,123,2.0,3.0,25,0.00,,,0.00,meteohub,2013-01-19 22:52:00,
2013-01-19 17:59:00,52.0,17.2,30.02,SE,134,1.0,5.0,25,0.00,,,0.00,meteohub,2013-01-19 22:59:00,
2013-01-19 18:05:00,51.8,18.0,30.01,ESE,123,3.0,5.0,26,0.00,,,0.00,meteohub,2013-01-19 23:05:00,
2013-01-19 18:15:00,51.8,18.9,30.02,SE,124,2.0,6.0,27,0.00,,,0.00,meteohub,2013-01-19 23:15:00,
2013-01-19 18:22:00,51.6,19.6,30.02,SE,126,4.0,6.0,28,0.00,,,0.00,meteohub,2013-01-19 23:22:00,
2013-01-19 18:27:00,51.8,20.5,30.01,SE,143,1.0,5.0,29,0.00,,,0.00,meteohub,2013-01-19 23:27:00,
2013-01-19 18:35:00,51.6,20.3,30.01,SSE,148,2.0,4.0,29,0.00,,,0.00,meteohub,2013-01-19 23:35:00,
2013-01-19 18:41:00,51.6,21.2,30.01,SE,134,1.0,4.0,30,0.00,,,0.00,meteohub,2013-01-19 23:41:00,
2013-01-19 18:47:00,51.3,20.8,30.01,East,97,2.0,4.0,30,0.00,,,0.00,meteohub,2013-01-19 23:47:00,
2013-01-19 18:54:00,51.1,21.6,30.01,East,95,2.0,4.0,31,0.00,,,0.00,meteohub,2013-01-19 23:54:00,
2013-01-19 19:00:00,51.1,21.6,30.01,SE,130,2.0,7.0,31,0.00,,,0.00,meteohub,2013-01-20 00:00:00,
2013-01-19 19:06:00,50.5,21.7,30.01,ESE,116,2.0,7.0,32,0.00,,,0.00,meteohub,2013-01-20 00:06:00,
2013-01-19 19:13:00,50.5,21.7,30.01,ESE,122,4.0,7.0,32,0.00,,,0.00,meteohub,2013-01-20 00:13:00,
2013-01-19 19:22:00,50.4,21.6,30.01,SW,225,3.0,9.0,32,0.00,,,0.00,meteohub,2013-01-20 00:22:00,
2013-01-19 19:27:00,50.4,21.6,30.01,ESE,108,1.0,9.0,32,0.00,,,0.00,meteohub,2013-01-20 00:27:00,
2013-01-19 19:33:00,50.5,21.7,30.01,South,175,1.0,9.0,32,0.00,,,0.00,meteohub,2013-01-20 00:33:00,
2013-01-19 19:40:00,50.2,22.1,30.00,SE,131,3.0,9.0,33,0.00,,,0.00,meteohub,2013-01-20 00:40:00,
2013-01-19 19:46:00,50.2,21.4,30.00,ESE,112,5.0,9.0,32,0.00,,,0.00,meteohub,2013-01-20 00:46:00,
2013-01-19 19:52:00,49.8,21.2,30.00,SSW,208,3.0,8.0,32,0.00,,,0.00,meteohub,2013-01-20 00:52:00,
2013-01-19 19:57:00,49.6,21.0,30.00,South,178,1.0,8.0,32,0.00,,,0.00,meteohub,2013-01-20 00:57:00,
2013-01-19 20:05:00,49.5,20.8,30.00,East,90,2.0,9.0,32,0.00,,,0.00,meteohub,2013-01-20 01:05:00,
2013-01-19 20:12:00,49.3,20.7,30.00,SSE,158,4.0,8.0,32,0.00,,,0.00,meteohub,2013-01-20 01:12:00,
2013-01-19 20:18:00,48.9,20.3,29.99,ESE,110,3.0,9.0,32,0.00,,,0.00,meteohub,2013-01-20 01:18:00,
2013-01-19 20:24:00,48.9,20.3,29.99,ESE,119,3.0,9.0,32,0.00,,,0.00,meteohub,2013-01-20 01:24:00,
2013-01-19 20:31:00,48.7,20.1,29.99,East,100,3.0,9.0,32,0.00,,,0.00,meteohub,2013-01-20 01:31:00,
2013-01-19 20:37:00,48.6,19.9,29.98,East,84,5.0,9.0,32,0.00,,,0.00,meteohub,2013-01-20 01:37:00,
2013-01-19 20:42:00,48.4,20.7,29.98,ENE,61,3.0,9.0,33,0.00,,,0.00,meteohub,2013-01-20 01:42:00,
2013-01-19 20:47:00,48.4,19.9,29.98,SSE,166,3.0,9.0,32,0.00,,,0.00,meteohub,2013-01-20 01:47:00,
2013-01-19 20:54:00,48.4,19.9,29.98,South,190,5.0,10.0,32,0.00,,,0.00,meteohub,2013-01-20 01:54:00,
2013-01-19 21:01:00,48.4,19.9,29.98,SSE,167,2.0,11.0,32,0.00,,,0.00,meteohub,2013-01-20 02:01:00,
2013-01-19 21:07:00,47.8,19.4,29.97,SE,132,3.0,8.0,32,0.00,,,0.00,meteohub,2013-01-20 02:07:00,
2013-01-19 21:13:00,47.8,20.1,29.97,SE,134,4.0,8.0,33,0.00,,,0.00,meteohub,2013-01-20 02:13:00,
2013-01-19 21:19:00,47.8,19.4,29.96,SE,146,4.0,8.0,32,0.00,,,0.00,meteohub,2013-01-20 02:19:00,
2013-01-19 21:27:00,47.7,19.9,29.96,East,98,6.0,11.0,33,0.00,,,0.00,meteohub,2013-01-20 02:27:00,
2013-01-19 21:32:00,48.0,18.9,29.96,ESE,103,4.0,9.0,31,0.00,,,0.00,meteohub,2013-01-20 02:32:00,
2013-01-19 21:39:00,48.0,18.9,29.96,SE,128,2.0,10.0,31,0.00,,,0.00,meteohub,2013-01-20 02:39:00,
2013-01-19 21:45:00,48.0,18.9,29.96,SE,138,3.0,10.0,31,0.00,,,0.00,meteohub,2013-01-20 02:45:00,
2013-01-19 21:52:00,48.0,18.9,29.95,ESE,107,2.0,9.0,31,0.00,,,0.00,meteohub,2013-01-20 02:52:00,
2013-01-19 21:57:00,48.2,19.8,29.96,ENE,57,7.0,10.0,32,0.00,,,0.00,meteohub,2013-01-20 02:57:00,
2013-01-19 22:02:00,48.0,18.9,29.95,SSE,165,5.0,10.0,31,0.00,,,0.00,meteohub,2013-01-20 03:02:00,
2013-01-19 22:07:00,47.8,18.7,29.95,SE,130,4.0,10.0,31,0.00,,,0.00,meteohub,2013-01-20 03:07:00,
2013-01-19 22:12:00,47.8,18.7,29.94,SSE,153,4.0,10.0,31,0.00,,,0.00,meteohub,2013-01-20 03:12:00,
2013-01-19 22:17:00,47.7,18.5,29.94,SSE,155,2.0,10.0,31,0.00,,,0.00,meteohub,2013-01-20 03:17:00,
2013-01-19 22:23:00,47.8,18.7,29.94,ESE,123,3.0,10.0,31,0.00,,,0.00,meteohub,2013-01-20 03:23:00,
2013-01-19 22:30:00,48.0,18.9,29.94,SSE,164,3.0,10.0,31,0.00,,,0.00,meteohub,2013-01-20 03:30:00,
2013-01-19 22:36:00,48.4,18.3,29.94,SE,137,5.0,12.0,30,0.00,,,0.00,meteohub,2013-01-20 03:36:00,
2013-01-19 22:42:00,48.4,18.3,29.94,East,86,6.0,12.0,30,0.00,,,0.00,meteohub,2013-01-20 03:42:00,
2013-01-19 22:47:00,48.4,18.3,29.93,ESE,107,1.0,10.0,30,0.00,,,0.00,meteohub,2013-01-20 03:47:00,
2013-01-19 22:52:00,48.2,18.1,29.93,SSE,165,2.0,10.0,30,0.00,,,0.00,meteohub,2013-01-20 03:52:00,
2013-01-19 22:57:00,48.0,18.1,29.92,South,177,3.0,10.0,30,0.00,,,0.00,meteohub,2013-01-20 03:57:00,
2013-01-19 23:07:00,48.0,18.1,29.92,SE,125,7.0,9.0,30,0.00,,,0.00,meteohub,2013-01-20 04:07:00,
2013-01-19 23:12:00,48.0,18.1,29.91,SSE,154,2.0,12.0,30,0.00,,,0.00,meteohub,2013-01-20 04:12:00,
2013-01-19 23:17:00,47.8,18.0,29.91,SE,143,3.0,12.0,30,0.00,,,0.00,meteohub,2013-01-20 04:17:00,
2013-01-19 23:23:00,47.8,18.0,29.91,SE,126,2.0,12.0,30,0.00,,,0.00,meteohub,2013-01-20 04:23:00,
2013-01-19 23:31:00,47.8,18.0,29.90,SE,128,5.0,10.0,30,0.00,,,0.00,meteohub,2013-01-20 04:31:00,
2013-01-19 23:37:00,47.8,18.0,29.90,East,101,3.0,10.0,30,0.00,,,0.00,meteohub,2013-01-20 04:37:00,
2013-01-19 23:42:00,47.8,18.0,29.89,SSE,154,7.0,9.0,30,0.00,,,0.00,meteohub,2013-01-20 04:42:00,
2013-01-19 23:50:00,47.8,17.1,29.89,ESE,110,4.0,10.0,29,0.00,,,0.00,meteohub,2013-01-20 04:50:00,
2013-01-19 23:56:00,47.7,17.8,29.89,SE,128,3.0,10.0,30,0.00,,,0.00,meteohub,2013-01-20 04:56:00,